Location: La Brionne
(46.1728°N, 1.7849°E)
Time: 13:42:03
(UTC+00:00)

Cosmos 2219 Rocket - Pass Details

Date: 26 October 2021
Orbit: 826 x 848 km, 71.0° (Epoch: 01 December)

Event Time Altitude Azimuth Distance (km) Brightness Sun altitude
Rises 21:06:01 0° 257° (WSW) 3,366 5.8 -43.9°
Reaches altitude 10° 21:09:19 10° 277° (W) 2,439 5.1 -44.4°
Enters shadow 21:10:12 13° 285° (WNW) 2,252 4.9 -44.5°
